Погода в Прущ-Гданьски

Польша     54°15′11″N   18°38′34″E
темп.,
°C
ветер,
м/с
пор.,
м/с
влажн.,
%
обл.,
%
осадки,
мм/ч
давл.,
гПа
погр.,
м
26 февраля, пт
пт2601:00+8з5138811 0.0 1023401
04:00+5з4118797 0.0 1023321
07:00+4з4117998 0.0 1023339
10:00+7з51171100 0.0 1023727
13:00+9з71365100 0.0 10231197
16:00+6зсз7127781 0.0 1021933
19:00+6зсз7147978 0.0 1022872
22:00+5зсз7158422 0.0 1022528
27 февраля, сб
сб2701:00+4зсз7148711 0.0 1023395
04:00+3сз613860 0.0 1024375
07:00+2сз511890 0.0 1027344
10:00+5ссз610750 0.0 1028765
13:00+6ссз69670 0.0 1030951
16:00+5ссз58710 0.0 1031754
19:00+2сз49840 0.0 1032261
22:00+1зсз46850 0.0 1033132
28 февраля, вс
вс2801:00+1зсз47835 0.0 1033112
04:00+2з4780100 0.0 1032130
07:00+1з478582 0.0 1032151
10:00+6зсз46820 0.0 1032356
13:00+7зсз57790 0.0 1032459
16:00+6зсз478334 0.0 1032557
19:00+5сз368668 0.0 1033293
22:00+2сз239320 0.0 103356
1 марта, пн
пн101:00+1зсз23929 0.0 103448
04:00+1зсз12880 0.0 103422
07:00+2сз22860 0.0 103522
10:00+6ссз12690 0.0 1036250
13:00+9ююв01590 0.0 1036415
16:00+9ююв12660 0.0 103632
19:00+6з23750 0.0 103622
22:00+5зюз23820 0.0 103627
2 марта, вт
вт201:00+4зюз23820 0.0 103625
04:00+3юз33820 0.0 103532
07:00+2зюз34830 0.0 103550
10:00+8юз35650 0.0 1035280
13:00+11юз45560 0.0 1034536
16:00+10ююз23660 0.0 103295
19:00+6ююз33800 0.0 103138
22:00+4юз33850 0.0 103135